• In Austria
  • List of Countries
  • For 7 days
  • Water Temperature
  • Satellite Maps
  • Weather Map
  • News
  • Weather Widgets
  • user-avatar
    Login

    Hourly Weather Tirana

    Today, 24 September, Monday

    Time Temperature Precipitation Wind Pressure Humidity
    00:00 +23°C° 0 mm 2 mps 755 mmHg 51%
    01:00 +23°C° 0 mm 2 mps 755 mmHg 52%
    02:00 +21°C° 0 mm 3 mps 754 mmHg 52%
    03:00 +21°C° 0 mm 3 mps 754 mmHg 51%
    04:00 +21°C° 0 mm 3 mps 754 mmHg 51%
    05:00 +22°C° 0 mm 3 mps 754 mmHg 48%
    06:00 +24°C° 0 mm 3 mps 754 mmHg 46%
    07:00 +25°C° 0 mm 4 mps 753 mmHg 45%
    08:00 +27°C° 0 mm 4 mps 753 mmHg 41%
    09:00 +29°C° 0 mm 4 mps 753 mmHg 37%
    10:00 +30°C° 0 mm 4 mps 753 mmHg 34%
    11:00 +32°C° 0.1 mm 5 mps 753 mmHg 34%
    12:00 +32°C° 0.1 mm 5 mps 752 mmHg 35%
    13:00 +33°C° 0 mm 5 mps 753 mmHg 37%
    14:00 +32°C° 0.3 mm 5 mps 753 mmHg 43%
    15:00 +30°C° 0.3 mm 4 mps 753 mmHg 49%
    16:00 +29°C° 0.3 mm 4 mps 753 mmHg 55%
    17:00 +27°C° 0.4 mm 4 mps 754 mmHg 61%
    18:00 +25°C° 0.4 mm 4 mps 754 mmHg 67%
    19:00 +22°C° 0.4 mm 4 mps 755 mmHg 73%
    20:00 +21°C° 0 mm 4 mps 755 mmHg 71%
    21:00 +21°C° 0 mm 5 mps 756 mmHg 70%
    22:00 +20°C° 0 mm 6 mps 756 mmHg 68%
    23:00 +20°C° 0.1 mm 6 mps 757 mmHg 64%

    Tomorrow, 25 September, Tuesday

    Time Temperature Precipitation Wind Pressure Humidity
    00:00 +18°C° 0.1 mm 7 mps 757 mmHg 60%
    01:00 +18°C° 0.1 mm 7 mps 758 mmHg 56%
    02:00 +17°C° 0 mm 7 mps 758 mmHg 56%
    03:00 +16°C° 0 mm 7 mps 758 mmHg 56%
    04:00 +15°C° 0 mm 7 mps 758 mmHg 55%
    05:00 +15°C° 0 mm 7 mps 759 mmHg 53%
    06:00 +15°C° 0 mm 7 mps 759 mmHg 51%
    07:00 +15°C° 0 mm 7 mps 759 mmHg 49%
    08:00 +17°C° 0 mm 7 mps 759 mmHg 43%
    09:00 +20°C° 0 mm 7 mps 759 mmHg 37%
    10:00 +22°C° 0 mm 7 mps 759 mmHg 32%
    11:00 +23°C° 0 mm 7 mps 759 mmHg 29%
    12:00 +26°C° 0 mm 7 mps 759 mmHg 26%
    13:00 +27°C° 0 mm 7 mps 759 mmHg 23%
    14:00 +26°C° 0 mm 7 mps 759 mmHg 23%
    15:00 +26°C° 0 mm 7 mps 759 mmHg 23%
    16:00 +24°C° 0 mm 7 mps 759 mmHg 23%
    17:00 +22°C° 0 mm 7 mps 760 mmHg 27%
    18:00 +20°C° 0 mm 7 mps 760 mmHg 30%
    19:00 +16°C° 0 mm 7 mps 761 mmHg 33%
    20:00 +16°C° 0 mm 8 mps 761 mmHg 35%
    21:00 +15°C° 0 mm 8 mps 762 mmHg 37%
    22:00 +13°C° 0 mm 8 mps 762 mmHg 39%
    23:00 +12°C° 0 mm 8 mps 762 mmHg 41%

    Day after tomorrow, 26 September, Wednesday

    Time Temperature Precipitation Wind Pressure Humidity
    00:00 +12°C° 0 mm 8 mps 763 mmHg 42%
    01:00 +11°C° 0 mm 8 mps 763 mmHg 44%
    02:00 +10°C° 0 mm 8 mps 763 mmHg 45%
    03:00 +10°C° 0 mm 7 mps 763 mmHg 46%
    04:00 +9°C° 0 mm 7 mps 763 mmHg 47%
    05:00 +10°C° 0 mm 7 mps 763 mmHg 45%
    06:00 +11°C° 0 mm 7 mps 764 mmHg 42%
    07:00 +12°C° 0 mm 8 mps 764 mmHg 40%
    08:00 +15°C° 0 mm 8 mps 764 mmHg 34%
    09:00 +17°C° 0 mm 8 mps 764 mmHg 28%
    10:00 +20°C° 0 mm 7 mps 764 mmHg 23%
    11:00 +21°C° 0 mm 7 mps 764 mmHg 21%
    12:00 +21°C° 0 mm 7 mps 764 mmHg 19%
    13:00 +22°C° 0 mm 7 mps 763 mmHg 17%
    14:00 +22°C° 0 mm 7 mps 763 mmHg 18%
    15:00 +21°C° 0 mm 7 mps 763 mmHg 19%
    16:00 +21°C° 0 mm 7 mps 763 mmHg 19%
    17:00 +18°C° 0 mm 7 mps 763 mmHg 23%
    18:00 +16°C° 0 mm 6 mps 764 mmHg 26%
    19:00 +13°C° 0 mm 6 mps 764 mmHg 29%
    20:00 +11°C° 0 mm 6 mps 765 mmHg 31%
    21:00 +11°C° 0 mm 6 mps 765 mmHg 33%
    22:00 +10°C° 0 mm 6 mps 765 mmHg 35%
    23:00 +10°C° 0 mm 6 mps 765 mmHg 37%

    27 September, Thursday

    Time Temperature Precipitation Wind Pressure Humidity
    00:00 +9°C° 0 mm 5 mps 765 mmHg 39%
    01:00 +9°C° 0 mm 5 mps 765 mmHg 41%
    02:00 +8°C° 0 mm 5 mps 765 mmHg 41%
    03:00 +8°C° 0 mm 5 mps 764 mmHg 42%
    04:00 +8°C° 0 mm 4 mps 764 mmHg 43%
    05:00 +10°C° 0 mm 4 mps 764 mmHg 40%
    06:00 +11°C° 0 mm 4 mps 764 mmHg 37%
    07:00 +12°C° 0 mm 4 mps 763 mmHg 35%
    08:00 +15°C° 0 mm 4 mps 763 mmHg 29%
    09:00 +19°C° 0 mm 4 mps 762 mmHg 23%
    10:00 +21°C° 0 mm 4 mps 762 mmHg 18%
    11:00 +22°C° 0 mm 5 mps 761 mmHg 17%
    12:00 +25°C° 0 mm 5 mps 761 mmHg 15%
    13:00 +26°C° 0 mm 6 mps 760 mmHg 14%
    14:00 +24°C° 0 mm 6 mps 759 mmHg 15%
    15:00 +24°C° 0 mm 6 mps 759 mmHg 16%
    16:00 +24°C° 0 mm 7 mps 758 mmHg 17%
    17:00 +22°C° 0 mm 6 mps 758 mmHg 20%
    18:00 +19°C° 0 mm 6 mps 758 mmHg 23%
    19:00 +15°C° 0 mm 6 mps 758 mmHg 26%
    20:00 +15°C° 0 mm 6 mps 758 mmHg 29%
    21:00 +14°C° 0 mm 6 mps 758 mmHg 31%
    22:00 +13°C° 0 mm 6 mps 758 mmHg 33%
    23:00 +13°C° 0 mm 6 mps 758 mmHg 35%

    28 September, Friday

    Time Temperature Precipitation Wind Pressure Humidity
    00:00 +11°C° 0 mm 6 mps 758 mmHg 36%
    01:00 +11°C° 0 mm 6 mps 757 mmHg 37%
    02:00 +10°C° 0 mm 6 mps 757 mmHg 38%
    03:00 +10°C° 0 mm 5 mps 757 mmHg 38%
    04:00 +10°C° 0 mm 5 mps 757 mmHg 39%
    05:00 +12°C° 0 mm 5 mps 756 mmHg 38%
    06:00 +13°C° 0 mm 5 mps 756 mmHg 37%
    07:00 +14°C° 0 mm 5 mps 756 mmHg 36%
    08:00 +17°C° 0 mm 5 mps 756 mmHg 31%
    09:00 +21°C° 0 mm 4 mps 756 mmHg 27%
    10:00 +23°C° 0 mm 4 mps 756 mmHg 22%
    11:00 +26°C° 0 mm 3 mps 755 mmHg 21%
    12:00 +27°C° 0 mm 3 mps 755 mmHg 20%
    13:00 +28°C° 0 mm 3 mps 754 mmHg 19%
    14:00 +28°C° 0 mm 3 mps 754 mmHg 20%
    15:00 +27°C° 0 mm 4 mps 754 mmHg 21%
    16:00 +27°C° 0 mm 5 mps 753 mmHg 22%
    17:00 +23°C° 0 mm 5 mps 754 mmHg 29%
    18:00 +21°C° 0 mm 5 mps 754 mmHg 35%
    19:00 +17°C° 0 mm 5 mps 754 mmHg 42%
    20:00 +18°C° 0 mm 4 mps 754 mmHg 40%
    21:00 +17°C° 0 mm 4 mps 754 mmHg 39%
    22:00 +17°C° 0 mm 3 mps 755 mmHg 37%
    23:00 +17°C° 0 mm 3 mps 754 mmHg 38%

    29 September, Saturday

    Time Temperature Precipitation Wind Pressure Humidity
    00:00 +16°C° 0 mm 3 mps 754 mmHg 38%
    01:00 +16°C° 0 mm 3 mps 754 mmHg 39%
    02:00 +16°C° 0 mm 2 mps 754 mmHg 40%
    03:00 +16°C° 0 mm 2 mps 754 mmHg 42%
    04:00 +15°C° 0 mm 2 mps 754 mmHg 43%
    05:00 +16°C° 0 mm 2 mps 754 mmHg 43%
    06:00 +17°C° 0 mm 2 mps 754 mmHg 42%
    07:00 +18°C° 0 mm 2 mps 754 mmHg 42%
    08:00 +21°C° 0 mm 2 mps 754 mmHg 37%
    09:00 +24°C° 0 mm 1 mps 754 mmHg 32%
    10:00 +26°C° 0 mm 1 mps 754 mmHg 27%
    11:00 +27°C° 0 mm 2 mps 754 mmHg 27%
    12:00 +28°C° 0 mm 2 mps 754 mmHg 26%
    13:00 +28°C° 0 mm 3 mps 753 mmHg 25%
    14:00 +28°C° 0 mm 3 mps 753 mmHg 28%
    15:00 +27°C° 0 mm 3 mps 753 mmHg 30%
    16:00 +26°C° 0 mm 3 mps 753 mmHg 33%
    17:00 +24°C° 0 mm 3 mps 754 mmHg 41%
    18:00 +21°C° 0 mm 2 mps 754 mmHg 49%
    19:00 +20°C° 0 mm 1 mps 754 mmHg 57%
    20:00 +19°C° 0 mm 1 mps 755 mmHg 56%
    21:00 +19°C° 0 mm 1 mps 755 mmHg 55%
    22:00 +18°C° 0 mm 2 mps 755 mmHg 53%
    23:00 +18°C° 0 mm 2 mps 755 mmHg 52%
    Show more